(2007 VG3) |
Classification: Apollo [NEO] SPK-ID: 3392305 |
[ hide orbit diagram ]
For accurate long-term ephemerides, please instead use our Horizons system.This orbit viewer was implemented using two-body methods, and hence should not be used for determining accurate long-term trajectories (over several years or decades) or planetary encounter circumstances.
Orbital Elements at Epoch 2454408.5 (2007-Nov-04.0) TDB
Reference: JPL 7 (heliocentric ecliptic J2000)
Element | Value | Uncertainty (1-sigma) | Units |
e | .6942628995418896 | 0.001631 | |
a | 3.298572028009034 | 0.01769 | au |
q | 1.008495847495711 | 2.8454e-05 | au |
i | 10.95536130787564 | 0.016555 | deg |
node | 215.4383159706253 | 0.0014507 | deg |
peri | 174.8355705887565 | 0.003484 | deg |
M | 1.4712863543626 | 0.011691 | deg |
tp | 2454399.557023471616 (2007-Oct-26.05702347) | 0.00099254 | TDB |
period | 2188.20186884218 5.99 | 17.603 0.04819 | d yr |
n | .1645186420531132 | 0.0013234 | deg/d |
Q | 5.588648208522358 | 0.029971 | au |
|
| | Orbit Determination Parameters
Additional Information
|
[ show covariance matrix ]
Physical Parameter Table
Parameter |
Symbol |
Value |
Units |
Sigma |
Reference |
Notes |
absolute magnitude |
H |
24.6 |
|
n/a |
MPO129029 |
|
|
[ show close-approach data ]
|